SAS413 ESSA-EKCH

Flight info

Callsign SAS413
Flight time 0h 55m
Altitude 34000
Route PETEV N872 ELPAX DCT TOKSI N872 ERNOV
Aircraft A320/M-SDE3FGHIRWY/LB1

Departure

Time 2026-04-25 22:25
Airport Stockholm-Arlanda Airport (ESSA)

Arrival

Time 2026-04-25 23:21
Airport Copenhagen Kastrup Airport (EKCH)
Time Latitude Longitude Altitude Speed Heading
2026-04-25 21:49 59.65289 17.92961 138 ft 0 kts 69°
2026-04-25 22:12 59.65285 17.92942 137 ft 4 kts 69°
2026-04-25 22:13 59.65274 17.92887 137 ft 4 kts 69°
2026-04-25 22:13 59.65265 17.92838 137 ft 4 kts 69°
2026-04-25 22:13 59.65257 17.92799 137 ft 4 kts 69°
2026-04-25 22:13 59.65252 17.92773 137 ft 0 kts 69°
2026-04-25 22:21 59.65253 17.92806 137 ft 3 kts 79°
2026-04-25 22:21 59.65265 17.92799 137 ft 3 kts 329°
2026-04-25 22:21 59.65274 17.92789 137 ft 5 kts 329°
2026-04-25 22:21 59.65318 17.92742 137 ft 10 kts 331°
2026-04-25 22:22 59.65371 17.92685 138 ft 0 kts 331°
2026-04-25 22:22 59.65374 17.92682 138 ft 2 kts 331°
2026-04-25 22:22 59.65412 17.92642 138 ft 9 kts 333°
2026-04-25 22:22 59.65475 17.92582 138 ft 11 kts 341°
2026-04-25 22:23 59.65538 17.92661 138 ft 13 kts 74°
2026-04-25 22:23 59.65563 17.92858 138 ft 16 kts 76°
2026-04-25 22:23 59.65592 17.93087 138 ft 14 kts 76°
2026-04-25 22:23 59.65611 17.93237 138 ft 12 kts 76°
2026-04-25 22:24 59.65670 17.93380 138 ft 15 kts 45°
2026-04-25 22:24 59.65750 17.93545 138 ft 18 kts 46°
2026-04-25 22:24 59.65837 17.93723 138 ft 12 kts 46°
2026-04-25 22:24 59.65878 17.93893 138 ft 16 kts 74°
2026-04-25 22:25 59.65931 17.94298 140 ft 60 kts 75°
2026-04-25 22:25 59.66090 17.95536 138 ft 123 kts 76°
2026-04-25 22:25 59.66356 17.97474 241 ft 159 kts 71°
2026-04-25 22:25 59.66629 17.99567 916 ft 158 kts 71°
2026-04-25 22:26 59.66871 18.01695 1574 ft 160 kts 67°
2026-04-25 22:26 59.66765 18.04002 2151 ft 183 kts 110°
2026-04-25 22:26 59.65861 18.05808 2822 ft 191 kts 158°
2026-04-25 22:26 59.64588 18.06104 3395 ft 181 kts 201°
2026-04-25 22:27 59.63517 18.04833 3640 ft 183 kts 236°
2026-04-25 22:27 59.62617 18.02936 3928 ft 201 kts 236°
2026-04-25 22:27 59.61608 18.00827 4221 ft 222 kts 234°
2026-04-25 22:27 59.60513 17.98531 4667 ft 235 kts 234°
2026-04-25 22:28 59.59429 17.96118 5346 ft 239 kts 239°
2026-04-25 22:28 59.58344 17.93432 5742 ft 261 kts 239°
2026-04-25 22:28 59.57175 17.90535 6258 ft 279 kts 239°
2026-04-25 22:28 59.55956 17.87489 6950 ft 286 kts 238°
2026-04-25 22:29 59.54697 17.84396 7799 ft 289 kts 238°
2026-04-25 22:29 59.53432 17.81311 8644 ft 290 kts 237°
2026-04-25 22:29 59.52167 17.78215 9545 ft 291 kts 237°
2026-04-25 22:30 59.49587 17.71848 10650 ft 314 kts 238°
2026-04-25 22:30 59.48201 17.68353 10956 ft 331 kts 238°
2026-04-25 22:30 59.46778 17.64777 11678 ft 335 kts 237°
2026-04-25 22:30 59.45809 17.62394 12149 ft 338 kts 237°
2026-04-25 22:31 59.43814 17.57555 13125 ft 342 kts 237°
2026-04-25 22:31 59.42309 17.53912 13827 ft 345 kts 237°
2026-04-25 22:31 59.40794 17.50225 14460 ft 348 kts 237°
2026-04-25 22:31 59.39269 17.46500 15075 ft 352 kts 237°
2026-04-25 22:32 59.37733 17.42742 15691 ft 355 kts 237°
2026-04-25 22:32 59.36200 17.38997 16291 ft 358 kts 237°
2026-04-25 22:32 59.34634 17.35179 16905 ft 361 kts 237°
2026-04-25 22:32 59.33054 17.31327 17516 ft 365 kts 237°
2026-04-25 22:33 59.31459 17.27437 18132 ft 368 kts 237°
2026-04-25 22:33 59.29844 17.23511 18681 ft 371 kts 237°
2026-04-25 22:33 59.28214 17.19567 19229 ft 374 kts 237°
2026-04-25 22:33 59.26570 17.15597 19789 ft 378 kts 237°
2026-04-25 22:34 59.24907 17.11586 20325 ft 382 kts 237°
2026-04-25 22:34 59.23228 17.07532 20850 ft 385 kts 237°
2026-04-25 22:34 59.21553 17.03420 21373 ft 389 kts 237°
2026-04-25 22:34 59.19664 16.99549 21882 ft 400 kts 227°
2026-04-25 22:35 59.17528 16.96019 22400 ft 404 kts 226°
2026-04-25 22:35 59.15359 16.92478 22909 ft 408 kts 226°
2026-04-25 22:35 59.13170 16.88907 23406 ft 412 kts 226°
2026-04-25 22:35 59.10962 16.85313 23805 ft 416 kts 226°
2026-04-25 22:36 59.08728 16.81691 24117 ft 421 kts 226°
2026-04-25 22:36 59.07223 16.79257 24261 ft 426 kts 226°
2026-04-25 22:36 59.04927 16.75548 24590 ft 432 kts 226°
2026-04-25 22:36 59.02603 16.71808 24952 ft 436 kts 226°
2026-04-25 22:37 59.00257 16.68043 25319 ft 439 kts 226°
2026-04-25 22:37 58.97889 16.64254 25676 ft 443 kts 226°
2026-04-25 22:37 58.95502 16.60440 26044 ft 446 kts 227°
2026-04-25 22:37 58.93096 16.56602 26376 ft 450 kts 227°
2026-04-25 22:38 58.90672 16.52735 26728 ft 453 kts 227°
2026-04-25 22:38 58.88229 16.48840 27077 ft 457 kts 227°
2026-04-25 22:38 58.85764 16.44914 27414 ft 460 kts 227°
2026-04-25 22:38 58.83283 16.40970 27696 ft 464 kts 227°
2026-04-25 22:39 58.80806 16.37039 28009 ft 468 kts 227°
2026-04-25 22:39 58.78278 16.33044 28327 ft 471 kts 227°
2026-04-25 22:39 58.75728 16.29033 28663 ft 475 kts 227°
2026-04-25 22:39 58.73157 16.24994 28986 ft 478 kts 227°
2026-04-25 22:40 58.70567 16.20929 29306 ft 482 kts 227°
2026-04-25 22:40 58.67962 16.16840 29618 ft 485 kts 227°
2026-04-25 22:40 58.65331 16.12715 29933 ft 488 kts 227°
2026-04-25 22:40 58.62690 16.08587 30199 ft 491 kts 227°
2026-04-25 22:41 58.60029 16.04444 30482 ft 493 kts 227°
2026-04-25 22:41 58.57360 16.00296 30756 ft 495 kts 227°
2026-04-25 22:41 58.54684 15.96152 31174 ft 493 kts 227°
2026-04-25 22:41 58.52021 15.92039 31605 ft 492 kts 227°
2026-04-25 22:42 58.49364 15.87936 32036 ft 490 kts 227°
2026-04-25 22:42 58.46717 15.83851 32482 ft 488 kts 226°
2026-04-25 22:42 58.44080 15.79793 32922 ft 486 kts 226°
2026-04-25 22:42 58.41448 15.75750 33200 ft 485 kts 226°
2026-04-25 22:43 58.38819 15.71717 33456 ft 484 kts 226°
2026-04-25 22:43 58.36198 15.67698 33642 ft 484 kts 227°
2026-04-25 22:43 58.33578 15.63689 33879 ft 484 kts 227°
2026-04-25 22:43 58.30954 15.59683 33947 ft 481 kts 227°
2026-04-25 22:44 58.25752 15.51765 33948 ft 478 kts 227°
2026-04-25 22:44 58.20596 15.43950 33962 ft 477 kts 227°
2026-04-25 22:45 58.15398 15.36114 33964 ft 477 kts 227°
2026-04-25 22:45 58.10193 15.28292 33935 ft 478 kts 227°
2026-04-25 22:46 58.04977 15.20470 33944 ft 478 kts 227°
2026-04-25 22:46 57.99758 15.12683 33953 ft 479 kts 227°
2026-04-25 22:47 57.94530 15.04915 33972 ft 479 kts 227°
2026-04-25 22:47 57.89292 14.97170 33979 ft 479 kts 227°
2026-04-25 22:48 57.84043 14.89438 33986 ft 479 kts 227°
2026-04-25 22:48 57.78793 14.81733 33987 ft 479 kts 227°
2026-04-25 22:49 57.73534 14.74049 33990 ft 479 kts 227°
2026-04-25 22:49 57.68277 14.66384 33991 ft 479 kts 227°
2026-04-25 22:50 57.62996 14.58705 33944 ft 484 kts 229°
2026-04-25 22:50 57.57657 14.50965 33992 ft 488 kts 229°
2026-04-25 22:51 57.52319 14.43279 33995 ft 488 kts 228°
2026-04-25 22:51 57.46933 14.35556 33995 ft 489 kts 228°
2026-04-25 22:52 57.41546 14.27857 33991 ft 488 kts 228°
2026-04-25 22:52 57.37031 14.21425 33944 ft 489 kts 229°
2026-04-25 22:53 57.30742 14.12494 33942 ft 492 kts 229°
2026-04-25 22:53 57.25294 14.04791 33993 ft 494 kts 229°
2026-04-25 22:54 57.19883 13.97208 33740 ft 480 kts 229°
2026-04-25 22:54 57.17219 13.93497 33000 ft 482 kts 229°
2026-04-25 22:54 57.14523 13.89688 31892 ft 494 kts 230°
2026-04-25 22:55 57.11785 13.85806 31147 ft 498 kts 230°
2026-04-25 22:55 57.09034 13.81930 30481 ft 499 kts 230°
2026-04-25 22:55 57.06241 13.78006 29355 ft 510 kts 230°
2026-04-25 22:55 57.03416 13.74065 28585 ft 511 kts 230°
2026-04-25 22:56 57.00577 13.70138 27660 ft 514 kts 229°
2026-04-25 22:56 56.97717 13.66195 26922 ft 512 kts 229°
2026-04-25 22:56 56.94872 13.62295 26165 ft 509 kts 229°
2026-04-25 22:56 56.92043 13.58422 25526 ft 506 kts 229°
2026-04-25 22:57 56.89234 13.54577 24910 ft 502 kts 229°
2026-04-25 22:57 56.86453 13.50770 24374 ft 497 kts 230°
2026-04-25 22:57 56.83710 13.47011 24048 ft 487 kts 230°
2026-04-25 22:57 56.81032 13.43363 23923 ft 474 kts 230°
2026-04-25 22:58 56.78390 13.39753 23174 ft 478 kts 230°
2026-04-25 22:58 56.75755 13.36142 22918 ft 468 kts 230°
2026-04-25 22:58 56.73176 13.32630 22673 ft 459 kts 230°
2026-04-25 22:58 56.70633 13.29170 22314 ft 454 kts 230°
2026-04-25 22:59 56.68116 13.25745 21809 ft 452 kts 230°
2026-04-25 22:59 56.65596 13.22302 21221 ft 452 kts 230°
2026-04-25 22:59 56.63090 13.18899 20810 ft 448 kts 229°
2026-04-25 22:59 56.60601 13.15534 20401 ft 443 kts 229°
2026-04-25 23:00 56.58152 13.12242 19702 ft 435 kts 229°
2026-04-25 23:00 56.55737 13.09002 18960 ft 428 kts 229°
2026-04-25 23:00 56.53366 13.05823 18265 ft 423 kts 228°
2026-04-25 23:00 56.51038 13.02692 17772 ft 420 kts 228°
2026-04-25 23:01 56.48711 12.99569 17328 ft 414 kts 227°
2026-04-25 23:01 56.46409 12.96493 16886 ft 409 kts 227°
2026-04-25 23:01 56.44135 12.93460 16443 ft 404 kts 226°
2026-04-25 23:01 56.41887 12.90465 15998 ft 399 kts 226°
2026-04-25 23:02 56.39663 12.87504 15574 ft 395 kts 226°
2026-04-25 23:02 56.37465 12.84578 15146 ft 391 kts 226°
2026-04-25 23:02 56.35286 12.81679 14784 ft 385 kts 225°
2026-04-25 23:02 56.33175 12.78889 14587 ft 366 kts 225°
2026-04-25 23:03 56.31144 12.76215 13986 ft 357 kts 225°
2026-04-25 23:03 56.29159 12.73599 13347 ft 352 kts 224°
2026-04-25 23:03 56.27206 12.71014 13053 ft 345 kts 224°
2026-04-25 23:03 56.25291 12.68479 12715 ft 340 kts 224°
2026-04-25 23:04 56.23398 12.65972 12329 ft 336 kts 225°
2026-04-25 23:04 56.22157 12.64330 12103 ft 333 kts 224°
2026-04-25 23:04 56.19722 12.61130 11601 ft 317 kts 224°
2026-04-25 23:04 56.17851 12.59013 11249 ft 323 kts 212°
2026-04-25 23:05 56.15706 12.57712 10919 ft 328 kts 195°
2026-04-25 23:05 56.13466 12.57069 10746 ft 322 kts 196°
2026-04-25 23:05 56.11298 12.56122 10674 ft 319 kts 201°
2026-04-25 23:05 56.09180 12.54970 10604 ft 317 kts 202°
2026-04-25 23:06 56.07084 12.53756 10521 ft 316 kts 203°
2026-04-25 23:06 56.05020 12.52567 10447 ft 315 kts 202°
2026-04-25 23:06 56.02928 12.51397 10370 ft 314 kts 202°
2026-04-25 23:06 56.00838 12.50265 10296 ft 314 kts 201°
2026-04-25 23:07 55.98746 12.49163 10223 ft 313 kts 201°
2026-04-25 23:07 55.96655 12.48084 10148 ft 312 kts 200°
2026-04-25 23:07 55.94571 12.47018 10070 ft 311 kts 200°
2026-04-25 23:07 55.92489 12.45952 9979 ft 312 kts 200°
2026-04-25 23:08 55.90405 12.44881 9898 ft 312 kts 200°
2026-04-25 23:08 55.88319 12.43811 9818 ft 312 kts 200°
2026-04-25 23:08 55.86236 12.42746 9730 ft 311 kts 200°
2026-04-25 23:08 55.84158 12.41681 9645 ft 310 kts 200°
2026-04-25 23:09 55.82088 12.40618 9431 ft 310 kts 200°
2026-04-25 23:09 55.80019 12.39558 9044 ft 309 kts 200°
2026-04-25 23:09 55.77955 12.38502 8665 ft 308 kts 199°
2026-04-25 23:09 55.75904 12.37456 8356 ft 305 kts 199°
2026-04-25 23:10 55.73870 12.36419 8023 ft 302 kts 199°
2026-04-25 23:10 55.71847 12.35387 7650 ft 302 kts 199°
2026-04-25 23:10 55.69853 12.34372 7297 ft 296 kts 199°
2026-04-25 23:10 55.67884 12.33372 6767 ft 294 kts 198°
2026-04-25 23:11 55.65919 12.32375 6434 ft 292 kts 198°
2026-04-25 23:11 55.63966 12.31389 6059 ft 292 kts 198°
2026-04-25 23:11 55.62022 12.30405 5704 ft 291 kts 198°
2026-04-25 23:11 55.60086 12.29423 5341 ft 291 kts 198°
2026-04-25 23:12 55.58163 12.28449 5168 ft 283 kts 198°
2026-04-25 23:12 55.56332 12.27527 5030 ft 264 kts 198°
2026-04-25 23:12 55.54605 12.26660 4796 ft 254 kts 198°
2026-04-25 23:12 55.52913 12.25809 4524 ft 252 kts 198°
2026-04-25 23:13 55.51230 12.24959 4190 ft 251 kts 198°
2026-04-25 23:13 55.49558 12.24109 3960 ft 250 kts 198°
2026-04-25 23:13 55.47881 12.23251 3841 ft 248 kts 198°
2026-04-25 23:13 55.46259 12.22423 3761 ft 237 kts 198°
2026-04-25 23:14 55.44683 12.21708 3677 ft 233 kts 186°
2026-04-25 23:14 55.43111 12.22155 3606 ft 230 kts 149°
2026-04-25 23:14 55.41861 12.23831 3554 ft 224 kts 125°
2026-04-25 23:14 55.41074 12.26078 3507 ft 216 kts 103°
2026-04-25 23:15 55.40787 12.28604 3461 ft 207 kts 83°
2026-04-25 23:15 55.40994 12.31041 3410 ft 198 kts 64°
2026-04-25 23:15 55.41620 12.33148 3391 ft 192 kts 46°
2026-04-25 23:15 55.42552 12.34781 3363 ft 188 kts 36°
2026-04-25 23:16 55.43539 12.36284 3336 ft 188 kts 36°
2026-04-25 23:16 55.44526 12.37790 3309 ft 188 kts 36°
2026-04-25 23:16 55.45513 12.39297 3282 ft 188 kts 36°
2026-04-25 23:16 55.46497 12.40802 3257 ft 187 kts 36°
2026-04-25 23:17 55.47452 12.42267 3158 ft 176 kts 36°
2026-04-25 23:17 55.48359 12.43656 2947 ft 170 kts 36°
2026-04-25 23:17 55.49240 12.45006 2710 ft 166 kts 35°
2026-04-25 23:17 55.50107 12.46334 2490 ft 164 kts 35°
2026-04-25 23:18 55.50967 12.47653 2259 ft 163 kts 35°
2026-04-25 23:18 55.51822 12.48965 2038 ft 162 kts 35°
2026-04-25 23:18 55.52671 12.50269 1809 ft 160 kts 35°
2026-04-25 23:18 55.53477 12.51511 1586 ft 149 kts 34°
2026-04-25 23:19 55.54249 12.52698 1386 ft 144 kts 34°
2026-04-25 23:19 55.54985 12.53829 1168 ft 138 kts 34°
2026-04-25 23:19 55.55696 12.54934 962 ft 135 kts 34°
2026-04-25 23:19 55.56412 12.56029 782 ft 137 kts 36°
2026-04-25 23:20 55.57141 12.57148 583 ft 140 kts 35°
2026-04-25 23:20 55.57868 12.58279 421 ft 142 kts 35°
2026-04-25 23:20 55.58615 12.59429 217 ft 143 kts 34°
2026-04-25 23:20 55.59367 12.60583 39 ft 143 kts 36°
2026-04-25 23:21 55.60026 12.61586 27 ft 102 kts 41°
2026-04-25 23:21 55.60445 12.62240 25 ft 66 kts 41°
2026-04-25 23:21 55.60719 12.62659 26 ft 35 kts 39°
2026-04-25 23:21 55.60901 12.62836 25 ft 24 kts 16°
2026-04-25 23:22 55.61022 12.62884 24 ft 15 kts 11°
2026-04-25 23:22 55.61079 12.62906 24 ft 7 kts 12°
2026-04-25 23:22 55.61101 12.62915 24 ft 3 kts 14°
2026-04-25 23:23 55.61145 12.62974 24 ft 5 kts 18°
2026-04-25 23:23 55.61190 12.63018 25 ft 9 kts 43°
2026-04-25 23:23 55.61246 12.63100 25 ft 12 kts 40°
2026-04-25 23:23 55.61319 12.63212 24 ft 16 kts 41°
2026-04-25 23:24 55.61388 12.63319 24 ft 13 kts 41°
2026-04-25 23:24 55.61465 12.63440 24 ft 17 kts 40°
2026-04-25 23:24 55.61562 12.63585 25 ft 20 kts 41°
2026-04-25 23:24 55.61663 12.63745 25 ft 17 kts 41°
2026-04-25 23:25 55.61755 12.63885 24 ft 17 kts 41°
2026-04-25 23:25 55.61840 12.64018 24 ft 14 kts 41°
2026-04-25 23:25 55.61931 12.64120 26 ft 17 kts 25°
2026-04-25 23:25 55.62050 12.64217 24 ft 20 kts 25°
2026-04-25 23:26 55.62169 12.64317 24 ft 16 kts 25°
2026-04-25 23:26 55.62283 12.64390 22 ft 17 kts 10°
2026-04-25 23:26 55.62392 12.64448 24 ft 17 kts 16°
2026-04-25 23:26 55.62468 12.64511 25 ft 10 kts 56°
2026-04-25 23:27 55.62443 12.64630 24 ft 12 kts 123°
2026-04-25 23:27 55.62392 12.64767 24 ft 15 kts 123°
2026-04-25 23:27 55.62331 12.64932 24 ft 17 kts 123°
2026-04-25 23:27 55.62299 12.65017 24 ft 1 kts 123°
2026-04-25 23:28 55.62282 12.65077 26 ft 10 kts 106°
2026-04-25 23:28 55.62322 12.65200 24 ft 14 kts 18°
2026-04-25 23:28 55.62422 12.65200 24 ft 15 kts 358°
2026-04-25 23:28 55.62525 12.65185 24 ft 15 kts 358°
2026-04-25 23:29 55.62613 12.65183 24 ft 11 kts
2026-04-25 23:29 55.62654 12.65258 24 ft 7 kts 75°
2026-04-25 23:29 55.62683 12.65306 24 ft 4 kts 15°
2026-04-25 23:29 55.62703 12.65314 24 ft 3 kts 16°
2026-04-25 23:30 55.62718 12.65322 24 ft 2 kts 17°
2026-04-25 23:30 55.62724 12.65325 24 ft 0 kts 17°